sat.trackr.live / text

‹ back to catalog

STARLINK-5509

NORAD 57263 · 2023-094AX

PAYLOAD ACTIVE UNKNOWN

§ Identity

Operator
Country
US
Launch date
2023-07-07
Launch site
AFWTR
Launch vehicle
Mass (kg)
RCS (m²)

Purposes: comms

External: N2YO · Heavens-Above · Gunter

§ Orbital elements

Epoch: 2026-05-25T04:03:57.665952Z

Period
94.27 min
Inclination
43.0027°
Eccentricity
0.0000895
Mean motion
15.27577156 rev/d
Perigee alt
482.4 km
Apogee alt
483.7 km
Semi-major
6,861.2 km
B*
1.2553e-5
RAAN
318.6670°
Arg perigee
257.4095°
Mean anomaly
102.6657°
Rev number
15,881

§ Raw data

STARLINK-55091 57263U 23094AX  26145.16941743  .00000083  00000+0  12553-4 0  99942 57263  43.0027 318.6670 0000895 257.4095 102.6657 15.27577156158812

JSON: /api/v1/satellites/57263 · /tle

For live sub-satellite position, see the globe view (requires WebGL).

§ Visibility from observer

Set your observer location to see the next 7 days of passes ≥ 10°. The values pass through the URL so the page stays shareable.

No JS? Fill the form by hand. The geolocation button needs JavaScript.